Simultaneous Nadir Overpasses (SNOs) Predictions

Prediction of SNOs between AQUA and METOP-B Satellite Orbit:

Table of predicted SNOs for the next 14.0 days since TLE Epoch: 3/4/2016
Index Date (AQUA) Time (AQUA) Lat,Lon (AQUA) SZA (AQUA ) Date (METOP-B) Time (METOP-B) Lat,Lon (METOP-B) SZA (METOP-B ) Distance(km) Time Diff (sec)
1 03/06/2016 05:19:15 -73.46, -84.82 100.99 03/06/2016 05:18:06 -73.41, -86.52 100.95 54.37 69
2 03/06/2016 06:08:51 73.90, 81.88 79.47 03/06/2016 06:08:36 73.91, 81.96 79.49 2.89 15
3 03/06/2016 06:58:17 -73.92,-110.54 100.52 03/06/2016 06:59:17 -73.94,-110.65 100.51 3.64 60
4 03/09/2016 00:53:33 -73.59, -18.66 101.95 03/09/2016 00:52:22 -73.56, -19.78 101.92 35.36 71
5 03/09/2016 01:43:06 73.88, 148.36 78.35 03/09/2016 01:42:55 73.90, 148.35 78.38 2.94 11
6 03/09/2016 02:32:33 -73.95, -44.17 101.59 03/09/2016 02:33:36 -73.94, -44.24 101.61 2.86 63
7 03/11/2016 20:27:52 -73.74, 47.45 102.90 03/11/2016 20:26:39 -73.71, 46.96 102.90 15.81 73
8 03/11/2016 21:17:22 73.88,-145.20 77.24 03/11/2016 21:17:15 73.89,-145.26 77.26 2.68 7
9 03/11/2016 22:06:50 -74.00, 22.16 102.65 03/11/2016 22:07:55 -73.98, 22.27 102.68 3.81 65
10 03/14/2016 16:02:10 -73.86, 113.63 103.89 03/14/2016 16:00:56 -73.85, 113.70 103.89 2.62 74
11 03/14/2016 16:51:38 73.90, -78.81 76.14 03/14/2016 16:51:35 73.88, -78.89 76.13 2.90 3
12 03/14/2016 17:41:05 -73.96, 88.69 103.81 03/14/2016 17:42:15 -73.97, 88.66 103.81 1.59 70
13 03/17/2016 11:36:24 -73.84,-179.89 105.03 03/17/2016 11:35:15 -73.84,-179.92 105.02 1.34 69
14 03/17/2016 12:25:53 73.93, -12.45 75.06 03/17/2016 12:25:53 73.92, -12.40 75.04 2.47 0




NCC Satellite Simultaneous Nadir Overpasses (SNOs) Prediction Service
